* Astronomy

Members Login
Username 
 
Password 
    Remember Me  
Post Info TOPIC: SL-6 rocket body re-entry


L

Posts: 131433
Date:
RE: SL-6 rocket body re-entry
Permalink  
 


Update:
The SL-6 rocket body re-entered the Earths atmosphere on the 17th October, 2012 @ 05:38 GMT ± 38 minutes.

Inclination: 62.24° 
Revolution Number:    13868
Predicted  Location:    15.6°N, 170°W



__________________


L

Posts: 131433
Date:
Permalink  
 

Update:
The SL-6 rocket body is predicted to re-enter the Earths atmosphere on the 17th October, 2012 @ 09:00 GMT ± 12 hours.

SL-6 RB
1 23423U 94081D   12288.96666144 +.20363101 +60288-5 +32929-3 0 08407
2 23423 062.2370 299.2819 0979435 280.4636 096.9356 14.28637363138353

Period:       99.34 minutes
Inclination: 62.24° 
Apogee:     1362 km
Perigee:     92 km
Size:           9.48 metres
Revolution Number:    13866
Predicted  Location:    25.8°S, 38.9°W



__________________


L

Posts: 131433
Date:
Permalink  
 

Update:
The SL-6 rocket body is predicted to re-enter the Earths atmosphere on the 17th October, 2012 @ 05:00 GMT ± 48 hours.

SL-6 RB
1 23423U 94081D   12288.29443287  .17121341  22382-4  32326-3 0  8366
2 23423 062.2474 301.3590 1096970 280.0193 272.9112 14.00216973138253

Period:       107.19 minutes
Inclination: 62.24° 
Apogee:     2099 km
Perigee:     94 km
Size:           9.48 metres
Revolution Number:    13867
Predicted  Location:    50.8°S, 51.1°E



__________________


L

Posts: 131433
Date:
Permalink  
 

A SL-6 rocket body that was launched by a Molniya-M carrier rocket on the 14th December, 1994, from the Plesetsk launch site for the Molniya 1-88 satellite mission is predicted to re-enter the Earths atmosphere on the 17th October, 2012 @ 05:30 GMT ± 48 hours.

SL-6 RB
1 23423U 94081D   12287.75985883  .16161967  21437-4  29565-3 0  8323
2 23423 062.2399 302.9431 1177566 280.0269 115.6990 13.81765603138181

Period:       107.19 minutes
Inclination: 62.24° 
Apogee:     2099 km
Perigee:     94 km
Size:          9.48 metres
Revolution Number:    13866
Predicted  Location:    27.5°S, 168.7°E

 



__________________
Page 1 of 1  sorted by
 
Quick Reply

Please log in to post quick replies.



Create your own FREE Forum
Report Abuse
Powered by ActiveBoard